FLA576 KEYW-MYGF

Flight info

Callsign FLA576
Flight time N/A
Altitude 21000
Route EYW V157 DHP V3 FLL BR70V ZFP
Aircraft B732/M-VW/C

Departure

Time 2026-05-07 01:43
Airport Key West International Airport (KEYW)

Arrival

Time N/A
Airport Grand Bahama International Airport (MYGF)
Time Latitude Longitude Altitude Speed Heading
2026-05-07 01:34 24.55405 -81.75555 12 ft 0 kts 271°
2026-05-07 01:41 24.55408 -81.75568 11 ft 6 kts 296°
2026-05-07 01:41 24.55476 -81.75595 11 ft 12 kts 353°
2026-05-07 01:41 24.55531 -81.75547 11 ft 11 kts 87°
2026-05-07 01:41 24.55532 -81.75462 11 ft 11 kts 87°
2026-05-07 01:42 24.55533 -81.75378 11 ft 10 kts 88°
2026-05-07 01:42 24.55533 -81.75296 11 ft 10 kts 91°
2026-05-07 01:42 24.55578 -81.75251 11 ft 10 kts
2026-05-07 01:42 24.55618 -81.75274 11 ft 0 kts 271°
2026-05-07 01:43 24.55615 -81.75593 12 ft 82 kts 269°
2026-05-07 01:43 24.55603 -81.76494 62 ft 145 kts 269°
2026-05-07 01:43 24.55590 -81.77608 652 ft 148 kts 269°
2026-05-07 01:44 24.55691 -81.78715 1270 ft 151 kts 294°
2026-05-07 01:44 24.56409 -81.79545 1754 ft 160 kts 339°
2026-05-07 01:44 24.57537 -81.79668 2281 ft 172 kts
2026-05-07 01:44 24.58805 -81.79654 2726 ft 200 kts
2026-05-07 01:45 24.60242 -81.79353 3137 ft 227 kts 38°
2026-05-07 01:45 24.61343 -81.78015 3914 ft 244 kts 53°
2026-05-07 01:45 24.62400 -81.76554 4736 ft 258 kts 41°
2026-05-07 01:45 24.63989 -81.75551 5602 ft 269 kts 29°
2026-05-07 01:46 24.65515 -81.74379 6486 ft 278 kts 39°
2026-05-07 01:46 24.67034 -81.73032 7416 ft 285 kts 39°
2026-05-07 01:46 24.68569 -81.71654 8375 ft 290 kts 39°
2026-05-07 01:46 24.70117 -81.70264 9361 ft 292 kts 39°
2026-05-07 01:47 24.71697 -81.68859 10290 ft 295 kts 40°
2026-05-07 01:47 24.73284 -81.67477 11229 ft 296 kts 40°
2026-05-07 01:47 24.74896 -81.66087 12254 ft 294 kts 40°
2026-05-07 01:47 24.76465 -81.64703 13175 ft 293 kts 40°
2026-05-07 01:48 24.78040 -81.63265 14005 ft 295 kts 40°
2026-05-07 01:48 24.79599 -81.61814 14734 ft 300 kts 39°
2026-05-07 01:48 24.81207 -81.60329 15446 ft 304 kts 39°
2026-05-07 01:48 24.82824 -81.58866 16134 ft 308 kts 38°
2026-05-07 01:49 24.84511 -81.57366 16826 ft 312 kts 37°
2026-05-07 01:49 24.86199 -81.55888 17484 ft 315 kts 37°
2026-05-07 01:49 24.87921 -81.54400 18120 ft 319 kts 36°
2026-05-07 01:49 24.89668 -81.52907 18731 ft 323 kts 36°
2026-05-07 01:50 24.91452 -81.51391 19334 ft 326 kts 35°
2026-05-07 01:50 24.93247 -81.49871 19919 ft 330 kts 35°
2026-05-07 01:50 24.95062 -81.48337 20491 ft 333 kts 35°
2026-05-07 01:50 24.96921 -81.46768 20888 ft 342 kts 34°
2026-05-07 01:51 24.98859 -81.45140 20983 ft 359 kts 34°
2026-05-07 01:51 25.00893 -81.43440 21015 ft 377 kts 34°
2026-05-07 01:51 25.03011 -81.41673 21020 ft 395 kts 34°
2026-05-07 01:51 25.05237 -81.39809 21017 ft 411 kts 34°
2026-05-07 01:52 25.07552 -81.37861 21012 ft 426 kts 35°
2026-05-07 01:52 25.09963 -81.35820 21010 ft 441 kts 35°
2026-05-07 01:52 25.12399 -81.33755 21008 ft 453 kts 36°
2026-05-07 01:52 25.14924 -81.31587 21009 ft 465 kts 36°
2026-05-07 01:53 25.17443 -81.29411 21004 ft 458 kts 36°
2026-05-07 01:53 25.19941 -81.27231 21001 ft 458 kts 36°
2026-05-07 01:53 25.22442 -81.25036 21003 ft 457 kts 36°
2026-05-07 01:53 25.24926 -81.22845 21006 ft 457 kts 37°
2026-05-07 01:54 25.27364 -81.20685 21009 ft 456 kts 37°
2026-05-07 01:54 25.29828 -81.18491 21010 ft 455 kts 37°
2026-05-07 01:54 25.32295 -81.16292 21011 ft 455 kts 37°
2026-05-07 01:54 25.34755 -81.14100 21008 ft 454 kts 37°
2026-05-07 01:55 25.37217 -81.11908 21007 ft 454 kts 36°
2026-05-07 01:55 25.39658 -81.09740 21008 ft 454 kts 36°
2026-05-07 01:55 25.42125 -81.07552 21010 ft 453 kts 36°
2026-05-07 01:55 25.44581 -81.05380 21011 ft 453 kts 36°
2026-05-07 01:56 25.47024 -81.03220 21012 ft 453 kts 36°
2026-05-07 01:56 25.49149 -81.01346 21013 ft 452 kts 36°
2026-05-07 01:56 25.51454 -80.99320 21013 ft 452 kts 36°
2026-05-07 01:56 25.53747 -80.97308 21014 ft 452 kts 36°
2026-05-07 01:57 25.56227 -80.95139 21015 ft 452 kts 36°
2026-05-07 01:57 25.58669 -80.93010 21016 ft 451 kts 36°
2026-05-07 01:57 25.61120 -80.90872 21017 ft 451 kts 36°
2026-05-07 01:57 25.63586 -80.88724 21017 ft 451 kts 36°
2026-05-07 01:58 25.66049 -80.86581 21018 ft 451 kts 35°
2026-05-07 01:58 25.68514 -80.84441 21018 ft 451 kts 35°
2026-05-07 01:58 25.70976 -80.82304 21019 ft 451 kts 35°
2026-05-07 01:58 25.73436 -80.80165 21019 ft 451 kts 35°
2026-05-07 01:59 25.75811 -80.77891 21011 ft 454 kts 45°
2026-05-07 01:59 25.77513 -80.74949 21012 ft 461 kts 63°
2026-05-07 01:59 25.78375 -80.71538 21017 ft 465 kts 77°
2026-05-07 01:59 25.78820 -80.67963 21020 ft 467 kts 81°
2026-05-07 02:00 25.79043 -80.64373 21020 ft 468 kts 84°
2026-05-07 02:00 25.79182 -80.60742 21019 ft 469 kts 85°
2026-05-07 02:00 25.79293 -80.57168 21019 ft 469 kts 85°
2026-05-07 02:00 25.79396 -80.53548 21018 ft 469 kts 85°
2026-05-07 02:01 25.79498 -80.49937 21018 ft 469 kts 85°
2026-05-07 02:01 25.79604 -80.46327 21017 ft 469 kts 85°
2026-05-07 02:01 25.79906 -80.42722 21019 ft 466 kts 77°
2026-05-07 02:01 25.80650 -80.39257 21014 ft 462 kts 68°
2026-05-07 02:02 25.82118 -80.36155 21017 ft 455 kts 51°
2026-05-07 02:02 25.84106 -80.33456 21019 ft 452 kts 45°
2026-05-07 02:02 25.86241 -80.30883 21019 ft 451 kts 44°
2026-05-07 02:02 25.88590 -80.28671 21016 ft 444 kts 28°
2026-05-07 02:03 25.91356 -80.27192 21022 ft 441 kts 21°
2026-05-07 02:03 25.94155 -80.25783 21019 ft 441 kts 21°
2026-05-07 02:03 25.96932 -80.24346 21013 ft 443 kts 26°
2026-05-07 02:03 25.99460 -80.22378 21014 ft 447 kts 35°
2026-05-07 02:04 26.01970 -80.20353 21020 ft 446 kts 32°
2026-05-07 02:04 26.04403 -80.18200 21017 ft 450 kts 40°
2026-05-07 02:04 26.06422 -80.15549 21012 ft 456 kts 55°
2026-05-07 02:04 26.07798 -80.12354 21022 ft 460 kts 64°
2026-05-07 02:05 26.08943 -80.09038 21024 ft 461 kts 66°
2026-05-07 02:05 26.10037 -80.05709 21021 ft 461 kts 67°
2026-05-07 02:05 26.11129 -80.02364 21019 ft 462 kts 67°
2026-05-07 02:05 26.12219 -79.99005 21017 ft 462 kts 67°
2026-05-07 02:06 26.13252 -79.95599 21017 ft 463 kts 69°
2026-05-07 02:06 26.14228 -79.92213 21017 ft 464 kts 69°
2026-05-07 02:06 26.15185 -79.88790 21018 ft 464 kts 70°
2026-05-07 02:06 26.16136 -79.85336 21018 ft 465 kts 70°
2026-05-07 02:07 26.17067 -79.81915 21018 ft 465 kts 70°
2026-05-07 02:07 26.18920 -79.75046 21019 ft 466 kts 70°
2026-05-07 02:07 26.19537 -79.72734 21021 ft 466 kts 70°